{"data":{"norad_id":46266,"intl_designator":"2020-059B","name":"GNOMES-1","alt_names":[],"object_type":"PAYLOAD","status":"ACTIVE","operator":null,"country":"US","launch_date":"2020-08-30","launch_site_code":"AFETR","launch_vehicle":null,"mission":null,"orbit_class":"UNKNOWN","rcs_meters":null,"size_class":null,"mass_kg":null,"dimensions":null,"purposes":[],"wikipedia_slug":null,"has_3d_model":false,"image_url":null,"decayed_at":null,"tle_current":{"epoch":"2026-05-25T02:50:13.966944Z","epoch_age_seconds":60945,"freshness":"FRESH","line1":"1 46266U 20059B   26145.11821721  .00002223  00000+0  18251-3 0  9999","line2":"2 46266  97.7871 355.4784 0012323  85.7423 274.5208 15.00190580312138","mean_motion":15.0019058,"eccentricity":0.0012323,"inclination_deg":97.7871,"raan_deg":355.4784,"arg_perigee_deg":85.7423,"mean_anomaly_deg":274.5208,"bstar":0.00018251,"rev_number":31213,"period_min":95.987804429488,"perigee_km":557.75050841621,"apogee_km":574.8657879284,"semimajor_km":6944.4451481723,"source":"CELESTRAK","updated_at":"2026-05-25T13:37:56.289085Z"}}}